Home   Weather   Sahuarita   Past weeks
Flag for USA

Past Weather in Sahuarita, Arizona, USA — Yesterday and Last 2 Weeks

Now
83 °F

Sunny.


Feels Like: 80 °F
Forecast: 89 / 60 °F
Wind: 9 mph from East

Location: Tucson International Airport

Current Time: Oct 16, 2019 at 10:40:30 am

Latest Report: Oct 16, 2019 at 9:53 am


Visibility: 10 mi

Pressure: 29.94 "Hg (27.27 "Hg at 824m altitude)

Humidity: 20%

Dew Point: 38 °F

Location of SahuaritaLocation

Past Weather in Sahuarita — Graph

°F

Sahuarita Temperature Yesterday

Maximum temperature yesterday: 89 °F (at 3:53 pm)
Minimum temperature yesterday: 62 °F (at 5:53 am)
Average temperature yesterday: 74 °F

High & Low Weather Summary for the Past Weeks

 TemperatureHumidityPressure
High96 °F (Oct 7, 1:53 pm)70% (Oct 2, 5:53 am)30.03 "Hg (Oct 2, 5:53 am)
Low55 °F (Oct 11, 4:53 am)9% (Oct 13, 1:53 pm)29.65 "Hg (Oct 9, 3:53 pm)
Average76 °F32%29.85 "Hg
* Reported Oct 1 8:53 am — Oct 16 8:53 am, Sahuarita. Weather by CustomWeather, © 2019

Note: Actual official high and low records may vary slightly from our data, if they occured in-between our weather recording intervals... More about our weather records

Advertising

Sahuarita Weather History for the Previous 24 Hours

Scroll right to see more
 ConditionsComfort  
Time TempWeatherWind HumidityBarometerVisibility
8:53 am
Wed, Oct 16
79 °FSunny.13 mph26%29.96 "Hg10 mi
7:53 am66 °FSunny.No wind39%29.96 "Hg10 mi
6:53 am61 °FSunny.5 mph46%29.95 "Hg10 mi
5:53 am62 °FClear.3 mph41%29.94 "Hg10 mi
4:53 am64 °FClear.No wind37%29.93 "Hg10 mi
3:53 am62 °FClear.9 mph41%29.93 "Hg10 mi
2:53 am63 °FClear.9 mph40%29.93 "Hg10 mi
1:53 am64 °FClear.No wind37%29.93 "Hg10 mi
12:53 am63 °FClear.5 mph41%29.92 "Hg10 mi
11:53 pm
Tue, Oct 15
66 °FClear.6 mph39%29.92 "Hg10 mi
10:53 pm68 °FClear.6 mph35%29.93 "Hg10 mi
9:53 pm72 °FClear.No wind30%29.91 "Hg10 mi
8:53 pm77 °FClear.5 mph24%29.90 "Hg10 mi
7:53 pm78 °FClear.5 mph24%29.89 "Hg10 mi
6:53 pm81 °FClear.8 mph23%29.88 "Hg10 mi
5:53 pm83 °FClear.5 mph22%29.85 "Hg10 mi
4:53 pm88 °FSunny.7 mph15%29.84 "Hg10 mi
3:53 pm89 °FSunny.6 mph14%29.84 "Hg10 mi
2:53 pm87 °FSunny.3 mph18%29.85 "Hg10 mi
1:53 pm86 °FSunny.5 mph20%29.86 "Hg10 mi
12:53 pm86 °FSunny.No wind23%29.89 "Hg10 mi
11:53 am83 °FSunny.6 mph28%29.93 "Hg10 mi
10:53 am79 °FSunny.5 mph36%29.96 "Hg10 mi
Weather by CustomWeather, © 2019

See weather overview